Location: Newark
(35.6799°N, 139.7636°E)
Time: 08:15:30
(UTC+00:00)

Explorer 7 - Pass Details

Date: 14 December 2019
Orbit: 485 x 679 km, 50.3° (Epoch: 28 January)

Event Time Altitude Azimuth Distance (km) Brightness Sun altitude
Rises 05:26:45 0° 251° (WSW) 2,925 11.6 18.5°
Reaches altitude 10° 05:29:10 10° 259° (W) 2,045 10.7 18.2°
Maximum altitude 05:33:37 40° 329° (NNW) 987 8.2 17.6°
Drops below altitude 10° 05:38:14 10° 39° (NE) 2,113 9.3 17.0°
Sets 05:40:45 0° 47° (NE) 3,034 10.0 16.6°
